Find Starlink 3696

NORAD ID: 51965 Int'l Des: 2022-025 Owner: SPXS Country: US Constellation: starlink operational
LEOCIRCULARSTARLINK_TYPE

实时位置

正在加载3D地球...

关于 Starlink 3696

正在加载描述...

即将过境

Passes for default location (London). Set your location on the main map for personalized predictions.

高度历史

Loading altitude history...

两行轨道根数

1 51965U 22025K 26125.33970771 .00000260 00000-0 20163-4 0 9994
2 51965 53.1609 133.8372 0001345 88.7656 271.3500 15.31697032229505
Epoch: May 5, 2026 • Age: 22 hours

当前状态

高度 490.0 km
速度 7.62 km/s
星下点 -52.70°S, 101.86°E
发射日期 Mar 9, 2022
运行时间 4.1 years
类型 internet

技术详情

分类 Payload
质量 297.00 kg
干质量 275.00 kg
总质量 297.00 kg
长度 0.20 m
直径 2.80 m
跨度 9.00 m
形状 Box + pan
制造商 SPXS
平台类型 Starlink
阶段状态 In Orbit
所有者/国家 SPXS/US

Most Searched